Temperature
16 15 15 16 17 18 18 19 19 20 20 19 18 18 19 20 21 21 21 21 22 22 22 21 21 20 19 18 18 17 16 15 14 13 13 12 12 11 11 11 11 10 10 10
15 15 17 18 18 18 18 18 18 19 20 19 18 18 19 19 20 21 21 21 21 21 21 21 21 20 19 18 17 17 16 15 14 14 14 13 12 11 11 11 11 10 10 10
15 16 18 18 18 18 18 17 18 18 19 19 18 17 18 19 20 21 21 21 21 21 21 20 20 19 19 18 17 16 16 15 14 14 13 12 11 11 11 10 10 10 10 10
16 17 18 17 18 18 17 18 18 18 17 16 17 15 18 19 19 19 20 21 21 20 20 20 19 18 18 17 17 16 15 15 14 14 13 12 12 11 11 11 11 10 10 10
16 17 17 17 18 18 18 19 18 18 16 15 16 15 17 19 19 19 19 21 20 20 19 19 18 18 17 16 16 15 15 14 14 13 13 12 12 11 11 11 10 10 10 10
17 18 18 18 18 19 18 18 17 17 15 14 15 15 16 18 19 20 20 20 20 19 19 18 17 17 16 15 15 14 14 13 13 13 12 12 11 11 11 10 10 10 10 10
15 16 18 18 17 17 17 16 14 13 13 13 16 16 17 20 20 20 20 20 20 19 18 17 17 16 15 14 14 13 13 13 12 12 12 12 11 11 11 11 11 10 10 10
13 14 16 17 17 16 16 16 14 13 14 15 16 16 18 20 20 20 20 20 19 18 17 17 16 15 14 14 13 12 12 12 12 12 12 11 11 11 10 10 11 11 11 11
15 15 17 17 17 17 16 15 16 15 15 15 16 17 19 19 19 19 19 19 18 18 17 16 15 14 14 13 12 12 12 12 12 12 11 11 10 10 10 10 10 10 10 10
16 15 16 17 17 17 17 16 15 14 13 13 15 16 17 18 18 18 18 18 18 17 16 15 15 14 13 12 12 11 11 11 11 11 11 11 10 10 10 10 10 10 10 10
15 15 15 16 15 15 15 16 15 14 14 13 14 16 19 18 18 18 18 18 18 17 16 15 15 14 13 12 12 11 11 11 11 11 11 10 10 10 10 10 10 10 10 10
15 15 14 14 15 16 16 16 15 14 14 14 14 16 20 19 18 18 18 18 18 17 16 15 14 14 13 12 12 11 11 11 11 11 11 10 10 10 10 10 10 10 10 10
14 13 12 12 13 14 15 16 16 15 15 14 14 15 18 18 18 18 18 18 18 17 16 15 15 14 13 12 12 11 11 11 11 10 10 10 10 10 10 10 10 10 10 10
14 12 12 12 13 13 13 15 16 15 14 14 14 16 17 18 17 17 18 18 18 17 17 16 15 14 13 13 12 12 11 11 11 10 10 10 10 10 10 10 10 10 10 9
12 12 12 13 15 15 14 14 15 15 15 14 15 16 17 17 17 18 19 19 18 17 17 16 16 15 14 13 12 11 11 11 11 10 10 10 10 10 10 10 10 9 9 9
11 11 12 12 14 15 15 15 15 15 15 15 15 16 18 18 19 19 19 19 18 18 17 17 16 15 14 13 12 12 11 11 10 10 10 10 9 9 9 9 9 9 9 8
9 10 11 11 13 14 13 14 15 15 15 15 15 16 17 17 17 18 18 18 18 17 17 16 16 15 15 14 13 12 11 11 10 10 9 9 9 9 9 9 8 8 8 8
8 9 10 10 11 10 12 15 15 15 16 16 16 16 16 17 18 18 18 18 17 17 16 16 15 15 14 14 13 12 11 10 10 9 9 9 8 8 8 8 8 8 8 7
9 9 9 9 10 11 14 15 15 15 15 16 16 16 16 18 17 17 17 17 17 16 16 15 15 15 14 13 12 11 11 10 9 9 9 8 8 8 8 7 7 7 7 7
10 10 9 9 9 10 13 15 16 15 13 15 15 15 15 15 13 13 16 16 16 15 15 15 14 14 13 12 12 11 10 9 9 9 8 8 7 7 7 7 7 6 6 6
9 9 8 8 9 11 15 15 15 13 13 16 16 16 15 13 14 15 15 15 15 14 14 14 13 13 12 12 11 10 10 9 9 8 7 7 7 6 6 6 6 5 5 5
9 8 8 9 9 10 13 13 13 14 16 17 17 17 16 16 15 15 14 14 14 13 13 13 12 12 11 11 11 10 9 8 8 7 7 6 6 6 5 5 5 5 4 4
9 10 10 10 11 13 13 14 15 17 16 16 16 16 16 15 14 14 13 13 12 12 12 12 12 11 11 10 10 9 8 8 7 6 6 5 5 5 4 4 4 4 4 3
10 11 11 11 12 12 14 15 15 16 16 16 16 16 15 14 14 13 12 12 12 11 11 11 11 11 10 9 9 9 8 7 7 6 5 5 5 4 4 3 3 3 3 3
9 9 10 11 12 12 13 14 15 15 15 15 15 15 15 14 13 13 12 11 11 11 11 10 10 10 9 9 8 8 7 7 6 6 5 4 4 4 3 3 3 3 2 2
8 9 10 10 12 12 12 14 14 14 14 15 14 14 14 14 13 12 12 11 11 11 10 10 9 9 8 8 7 7 6 6 6 5 5 4 3 3 3 2 2 2 1 1
Wind_Speed
13 12 17 18 19 16 13 11 10 7 6 7 9 11 11 11 10 11 11 11 11 11 10 9 10 11 11 11 12 15 15 14 12 11 11 10 9 7 7 7 12 13 13 12
14 21 20 18 17 18 17 15 12 8 5 6 8 12 12 13 13 13 13 12 11 9 7 6 8 10 11 11 12 14 15 15 13 11 10 9 8 6 6 6 8 12 12 12
26 17 20 20 18 17 17 14 13 10 7 7 7 11 14 14 15 14 12 11 10 9 8 6 7 9 10 11 12 12 14 14 13 12 9 8 6 5 5 7 7 8 12 12
22 21 19 20 20 17 15 13 11 10 8 7 7 9 9 10 11 12 11 10 9 8 6 6 7 9 10 10 10 11 12 13 14 14 13 14 10 8 7 7 6 7 10 11
14 19 21 20 19 17 12 8 9 9 9 11 11 10 8 10 11 11 10 9 7 5 5 6 7 8 9 9 9 10 10 12 13 14 14 14 10 7 7 8 9 8 7 9
18 15 17 19 14 12 10 6 5 6 6 11 13 11 8 9 10 6 6 6 6 5 5 6 6 6 7 8 8 9 10 11 12 13 14 14 13 11 12 11 11 9 7 6
20 20 16 12 14 13 11 8 5 6 7 8 10 10 8 7 5 4 3 3 5 5 5 6 7 8 9 10 9 9 11 11 12 13 14 14 13 13 14 13 11 11 8 6
19 18 17 12 14 13 15 15 10 8 6 5 7 9 6 5 6 5 4 4 4 5 5 6 7 8 9 10 10 10 11 11 12 13 13 12 12 10 10 11 10 10 8 8
16 16 15 14 12 14 17 17 14 8 8 6 6 6 8 7 6 6 6 5 5 6 6 6 7 8 9 11 11 11 12 11 12 12 11 11 12 11 10 11 10 8 8 8
11 12 16 17 12 15 13 13 8 9 6 7 8 10 8 9 10 8 7 7 6 7 7 7 7 8 9 10 10 11 11 11 11 12 11 10 11 11 11 11 11 10 10 10
17 10 11 15 19 21 16 17 10 9 8 6 5 5 6 8 9 8 7 7 7 8 8 7 7 8 9 9 10 10 11 11 11 11 10 10 10 10 11 11 11 11 10 11
18 8 10 12 11 13 18 19 16 11 9 9 6 5 1 6 8 8 7 7 8 8 7 8 8 8 9 10 10 10 10 10 11 11 10 11 10 11 11 11 11 11 11 11
16 7 8 8 10 13 14 17 18 15 10 9 10 7 4 7 8 7 7 8 8 8 8 7 8 9 9 10 10 10 10 10 10 11 11 11 11 12 12 11 11 11 11 11
12 8 11 13 9 14 16 18 18 18 15 15 14 11 6 7 8 8 8 8 8 9 9 9 9 9 9 10 10 10 10 10 10 11 11 11 12 12 11 11 11 11 11 11
5 10 11 12 10 16 19 20 22 23 19 14 14 15 12 9 9 9 9 9 8 8 9 10 9 9 9 10 10 10 10 11 11 11 11 11 11 10 10 11 11 10 10 10
4 7 11 14 14 11 13 19 21 23 20 19 15 15 9 7 5 5 6 6 6 7 8 9 9 9 10 10 10 10 10 10 10 11 10 10 10 10 11 11 11 10 9 9
6 6 9 12 13 10 14 18 19 18 19 19 20 16 9 9 8 7 6 6 6 6 6 8 9 9 9 10 10 11 10 10 11 10 10 10 11 11 10 11 11 10 10 9
11 10 6 7 9 13 11 11 15 16 17 17 15 11 10 10 8 6 6 6 6 7 7 7 7 8 7 8 9 9 9 10 10 10 10 10 11 10 10 10 10 9 8 8
15 13 7 5 8 8 7 12 16 17 17 15 15 13 11 8 4 5 5 5 5 5 6 6 6 7 7 8 9 10 9 9 10 10 10 10 11 11 11 10 10 7 7 6
14 13 8 6 7 10 8 10 10 9 13 13 13 13 12 9 8 7 5 5 6 7 7 6 6 7 7 8 9 10 9 9 9 9 9 9 10 10 10 9 7 6 6 6
14 12 14 9 7 8 6 9 12 10 10 9 13 13 11 12 9 7 8 7 8 9 8 8 8 7 7 8 9 9 9 8 8 8 9 9 9 9 8 7 6 6 5 5
10 10 13 11 8 8 5 10 12 6 3 5 7 9 10 9 10 10 10 9 9 9 8 8 8 7 7 8 10 9 8 8 9 9 9 8 8 7 7 7 6 6 6 5
10 10 7 10 9 4 9 8 7 4 4 4 4 6 10 10 10 10 9 9 9 9 8 8 9 9 7 7 9 10 8 9 10 9 9 8 8 6 6 6 6 5 5 4
6 7 6 6 8 8 8 6 5 3 4 5 6 7 9 10 11 11 10 9 9 8 8 8 9 9 8 8 9 9 9 9 10 9 8 7 7 6 5 4 4 4 4 4
6 5 7 8 6 7 9 9 7 5 6 6 6 6 9 11 11 11 10 10 9 8 7 8 9 10 9 9 9 9 9 9 10 9 7 6 5 5 4 3 3 4 4 5
8 9 11 7 6 5 7 8 8 7 8 8 8 6 7 9 11 10 10 9 9 9 9 9 10 10 10 10 9 8 8 9 9 8 6 5 4 4 3 2 1 2 4 6
Wind_Direction
196 207 213 213 216 231 246 249 245 240 185 187 224 244 250 253 246 243 242 241 241 241 230 206 188 178 174 172 166 168 171 177 174 174 177 178 179 170 165 164 169 172 173 176
200 216 217 218 220 223 238 252 262 269 220 208 240 254 258 252 247 240 238 241 244 247 241 208 179 171 172 173 171 170 173 177 178 178 177 174 167 165 161 157 164 169 170 168
213 213 213 222 222 221 226 234 244 256 262 241 252 261 253 250 242 239 234 232 238 238 230 206 181 177 173 176 177 177 176 175 175 168 163 157 147 140 151 162 167 167 165 162
222 222 212 215 223 219 226 224 239 255 268 265 248 271 257 258 247 235 223 219 228 229 212 188 180 180 180 179 173 175 174 173 172 167 169 169 172 170 172 167 163 163 160 157
217 213 217 218 217 217 222 220 230 241 254 264 261 269 258 241 241 229 209 203 202 196 185 182 181 183 177 167 165 169 170 171 169 171 172 174 174 169 155 156 159 160 154 150
235 222 218 221 217 213 206 204 234 249 250 250 237 242 264 230 229 208 186 178 173 178 180 174 172 163 159 153 155 162 167 172 171 173 176 179 176 169 161 162 165 162 155 153
230 232 224 209 205 203 195 181 202 211 218 237 215 224 243 223 201 176 175 171 164 167 163 166 163 162 158 155 160 168 173 174 173 177 181 184 179 171 168 167 167 163 160 161
211 220 215 206 205 196 198 194 198 197 210 222 200 224 241 219 170 155 166 170 162 153 152 155 158 160 159 161 166 175 179 178 177 180 184 184 176 171 170 168 166 167 166 163
203 215 197 197 200 198 198 208 221 260 285 286 240 229 226 208 176 167 175 172 168 156 150 153 158 163 162 167 174 180 181 180 180 181 182 180 173 168 166 163 160 161 157 155
223 212 197 187 191 217 207 190 198 217 222 242 250 245 238 208 192 183 180 172 159 152 152 158 166 169 167 169 173 179 181 181 178 179 179 176 169 166 161 158 160 157 154 153
233 229 196 183 193 198 202 204 196 201 218 211 231 237 217 185 166 163 163 153 149 156 161 169 169 167 164 164 171 179 180 174 175 176 171 166 166 161 157 159 159 156 153 155
215 224 212 204 205 207 206 208 200 200 207 215 239 261 100 122 133 139 144 149 151 158 165 166 163 163 165 168 173 177 177 174 174 170 167 166 161 157 158 160 159 156 155 158
207 202 191 194 211 215 219 215 211 214 226 222 220 237 191 150 144 149 162 167 165 167 169 166 166 171 174 174 176 178 177 173 169 166 165 163 162 162 163 162 160 157 156 158
201 197 204 204 193 188 207 215 213 212 223 231 231 231 211 180 176 180 188 191 184 177 176 176 179 180 178 177 178 178 177 171 168 166 166 167 168 167 165 162 160 159 158 160
182 213 223 235 222 190 199 207 212 216 219 223 228 231 228 216 204 201 198 197 193 184 182 181 180 179 177 177 178 177 176 171 168 168 170 171 167 164 161 160 159 157 158 161
197 214 225 239 241 228 212 210 213 219 223 230 238 240 233 242 230 216 207 194 196 199 190 181 177 177 178 178 177 174 172 169 165 168 170 164 162 161 161 160 156 155 157 158
213 212 213 227 231 236 234 217 215 219 222 224 232 235 234 246 242 231 217 207 205 198 188 180 177 179 177 175 173 173 168 162 164 166 163 161 160 161 161 157 155 159 163 163
217 223 217 213 208 223 232 205 214 224 226 223 229 225 220 228 232 220 201 202 204 188 175 172 166 166 164 161 160 157 156 158 160 161 161 160 158 159 156 158 162 165 166 170
212 207 212 205 208 236 231 201 202 215 233 222 223 223 220 216 229 236 202 187 186 167 149 143 144 146 147 149 150 146 148 151 156 161 160 159 158 158 159 164 167 165 165 171
202 199 203 206 205 219 217 190 181 193 241 222 214 215 208 185 212 228 178 152 134 117 111 114 117 120 130 139 138 140 146 150 159 159 154 152 153 156 161 163 162 159 162 169
192 194 203 209 216 242 224 170 146 183 229 205 202 205 194 194 198 158 128 115 113 111 110 108 108 113 124 128 129 135 139 149 145 137 136 139 144 149 152 152 152 152 156 163
193 188 196 201 207 228 185 153 172 198 173 167 177 184 177 162 136 130 126 123 120 118 116 114 109 106 107 117 125 128 133 130 124 125 128 131 134 139 144 147 152 156 160 174
203 198 189 198 211 197 171 186 196 158 146 140 138 137 140 139 142 138 137 135 132 129 124 118 117 110 102 109 120 125 125 121 121 121 124 126 126 131 141 150 157 162 168 182
215 208 206 209 215 199 196 198 199 180 146 132 132 133 136 141 144 142 141 138 134 128 127 125 122 118 112 107 109 117 120 120 121 123 125 127 131 137 140 143 153 164 181 194
235 208 225 230 211 187 208 206 192 171 138 125 124 135 145 142 144 146 144 142 138 132 128 126 126 122 116 110 108 112 118 121 121 121 123 125 128 133 138 147 169 182 200 201
227 213 210 224 205 201 212 203 186 172 170 160 147 138 139 145 145 141 140 139 135 133 129 126 124 121 117 113 111 111 114 118 121 124 125 126 128 131 139 152 197 236 235 247
Height
1467 1471 1469 1467 1468 1470 1468 1468 1468 1464 1461 1467 1471 1471 1468 1466 1465 1464 1464 1464 1465 1465 1467 1468 1469 1471 1474 1478 1480 1482 1485 1489 1493 1496 1499 1503 1507 1511 1514 1517 1520 1523 1526 1529
1462 1461 1458 1460 1461 1464 1466 1468 1468 1463 1459 1464 1468 1467 1462 1459 1458 1457 1457 1458 1458 1459 1461 1462 1463 1465 1467 1471 1474 1476 1479 1483 1486 1490 1493 1498 1502 1506 1510 1514 1517 1520 1523 1525
1449 1448 1452 1454 1456 1459 1461 1465 1466 1466 1461 1461 1466 1467 1459 1451 1449 1449 1450 1451 1452 1453 1455 1456 1458 1459 1462 1464 1468 1471 1473 1477 1481 1485 1490 1494 1499 1503 1506 1509 1512 1516 1519 1522
1442 1442 1444 1448 1450 1452 1458 1456 1460 1463 1468 1470 1466 1473 1457 1448 1445 1442 1442 1444 1446 1447 1449 1450 1452 1454 1456 1459 1462 1466 1469 1472 1476 1480 1483 1487 1490 1494 1498 1503 1507 1512 1515 1518
1433 1433 1437 1440 1442 1445 1450 1451 1456 1460 1466 1470 1466 1470 1455 1442 1441 1437 1436 1438 1440 1442 1444 1445 1447 1449 1451 1454 1457 1460 1464 1467 1471 1474 1478 1482 1487 1491 1495 1500 1504 1507 1511 1514
1426 1426 1428 1431 1435 1439 1445 1452 1456 1459 1466 1474 1464 1467 1454 1440 1434 1431 1431 1433 1436 1438 1440 1441 1443 1444 1446 1449 1451 1455 1458 1462 1466 1470 1474 1478 1482 1487 1491 1495 1499 1503 1506 1510
1426 1422 1421 1424 1432 1437 1442 1456 1472 1477 1477 1469 1451 1454 1443 1427 1424 1425 1428 1430 1432 1434 1436 1437 1438 1439 1441 1443 1446 1449 1453 1457 1461 1466 1470 1474 1479 1483 1486 1490 1494 1498 1501 1505
1424 1423 1417 1418 1423 1432 1437 1447 1462 1469 1465 1453 1444 1445 1431 1419 1419 1421 1424 1427 1430 1431 1433 1434 1435 1436 1438 1439 1442 1445 1449 1453 1457 1462 1466 1471 1475 1479 1483 1487 1490 1494 1498 1501
1410 1413 1409 1412 1416 1423 1433 1437 1439 1447 1446 1452 1442 1429 1421 1415 1416 1419 1422 1425 1427 1429 1430 1431 1432 1433 1435 1436 1438 1442 1445 1449 1454 1458 1462 1467 1471 1475 1479 1483 1487 1491 1495 1498
1396 1404 1402 1407 1414 1417 1420 1429 1439 1447 1458 1461 1445 1436 1428 1417 1416 1417 1419 1422 1424 1426 1427 1429 1430 1431 1432 1434 1436 1439 1443 1446 1450 1455 1459 1463 1467 1472 1476 1480 1483 1487 1491 1494
1396 1400 1400 1402 1407 1413 1419 1423 1428 1437 1441 1447 1445 1432 1406 1407 1409 1413 1415 1418 1421 1423 1425 1426 1427 1429 1430 1432 1434 1436 1440 1443 1447 1451 1455 1460 1464 1468 1472 1476 1480 1483 1487 1490
1391 1396 1401 1402 1400 1402 1407 1411 1419 1432 1434 1431 1437 1428 1400 1401 1404 1408 1412 1416 1418 1421 1422 1424 1425 1426 1428 1429 1431 1434 1437 1440 1444 1448 1452 1456 1460 1464 1468 1472 1476 1480 1483 1487
1387 1394 1404 1409 1410 1406 1404 1404 1407 1414 1420 1423 1430 1424 1400 1400 1403 1406 1410 1413 1415 1417 1419 1421 1422 1423 1425 1426 1428 1431 1434 1437 1441 1445 1449 1453 1456 1460 1464 1468 1472 1476 1479 1482
1380 1387 1393 1396 1392 1395 1401 1401 1400 1407 1415 1417 1415 1412 1403 1401 1403 1405 1407 1410 1412 1414 1416 1417 1419 1420 1422 1423 1425 1428 1431 1434 1437 1441 1445 1448 1452 1456 1460 1464 1468 1471 1475 1478
1378 1384 1384 1382 1378 1381 1387 1391 1393 1396 1398 1405 1403 1403 1400 1398 1399 1400 1402 1405 1407 1410 1411 1413 1414 1416 1418 1420 1422 1424 1427 1430 1433 1437 1440 1444 1448 1453 1457 1460 1464 1467 1471 1474
1379 1382 1383 1383 1377 1376 1381 1382 1385 1388 1389 1392 1394 1394 1389 1391 1392 1395 1397 1400 1402 1405 1407 1408 1410 1412 1413 1415 1417 1420 1423 1426 1430 1433 1437 1441 1445 1448 1452 1456 1460 1463 1466 1469
1383 1384 1386 1385 1379 1378 1382 1376 1378 1379 1379 1384 1387 1386 1386 1388 1389 1391 1393 1395 1398 1400 1402 1404 1406 1407 1409 1411 1413 1416 1419 1423 1426 1429 1433 1437 1440 1444 1448 1452 1456 1459 1462 1465
1382 1384 1384 1383 1383 1388 1371 1363 1367 1371 1371 1372 1375 1377 1380 1382 1384 1386 1388 1391 1393 1396 1398 1400 1402 1403 1406 1408 1410 1413 1416 1419 1422 1426 1429 1433 1437 1441 1445 1448 1451 1455 1458 1460
1372 1379 1382 1381 1380 1374 1360 1355 1358 1365 1365 1363 1367 1370 1373 1377 1380 1382 1384 1386 1389 1391 1393 1395 1398 1400 1402 1404 1407 1410 1413 1416 1419 1422 1425 1429 1433 1437 1441 1444 1448 1451 1454 1456
1362 1369 1378 1378 1376 1371 1354 1348 1349 1359 1364 1356 1359 1362 1366 1372 1380 1379 1380 1382 1384 1387 1389 1392 1394 1396 1399 1401 1404 1407 1410 1413 1416 1419 1423 1426 1430 1434 1437 1441 1444 1447 1450 1452
1360 1364 1370 1373 1370 1356 1342 1341 1347 1365 1358 1348 1349 1353 1359 1364 1369 1373 1376 1378 1381 1383 1386 1389 1391 1394 1396 1399 1402 1405 1408 1410 1414 1417 1421 1424 1427 1431 1434 1438 1441 1444 1446 1448
1351 1356 1361 1364 1365 1358 1338 1340 1346 1346 1342 1342 1344 1347 1352 1358 1363 1368 1372 1375 1378 1381 1384 1386 1389 1392 1395 1397 1400 1402 1406 1409 1412 1415 1419 1422 1425 1428 1432 1435 1437 1440 1442 1444
1342 1342 1343 1345 1344 1334 1333 1335 1337 1339 1341 1342 1343 1346 1350 1355 1360 1365 1369 1373 1376 1379 1382 1385 1388 1391 1393 1396 1399 1401 1404 1407 1410 1414 1417 1420 1423 1426 1429 1432 1434 1436 1438 1439
1335 1334 1336 1336 1333 1331 1332 1333 1336 1338 1340 1341 1344 1346 1349 1353 1357 1362 1367 1371 1374 1378 1381 1384 1387 1389 1392 1395 1398 1401 1403 1406 1409 1412 1415 1418 1421 1424 1427 1429 1431 1432 1433 1434
1333 1334 1333 1331 1327 1328 1330 1331 1334 1337 1339 1341 1344 1346 1349 1352 1356 1360 1364 1369 1373 1376 1380 1383 1386 1388 1391 1394 1397 1400 1403 1406 1408 1411 1414 1417 1419 1421 1423 1425 1427 1428 1429 1430
1327 1327 1329 1327 1324 1326 1326 1328 1331 1334 1337 1339 1342 1346 1348 1351 1354 1359 1363 1367 1371 1375 1378 1382 1385 1388 1391 1394 1397 1400 1403 1405 1408 1410 1413 1415 1417 1419 1421 1422 1424 1424 1425 1425